Time,TemperatureF,DewpointF,PressureIn,WindDirection,WindDirectionDegrees,WindSpeedMPH,WindSpeedGustMPH,Humidity,HourlyPrecipIn,Conditions,Clouds,dailyrainin,SolarRadiationWatts/m^2,SoftwareType,DateUTC
2013-09-15 00:00:00,47.1,44.9,30.15,NNW,346,0.0,0.0,92,0.00,,,0.00,0,Wunderground v.1.15,2013-09-15 04:00:00,
2013-09-15 00:10:00,46.9,44.7,30.15,NNW,346,0.0,0.0,92,0.00,,,0.00,0,Wunderground v.1.15,2013-09-15 04:10:00,
2013-09-15 00:20:00,46.9,45.0,30.15,NNW,346,0.0,0.0,93,0.00,,,0.00,0,Wunderground v.1.15,2013-09-15 04:20:00,
2013-09-15 00:30:00,47.7,45.8,30.15,NNW,346,0.0,0.0,93,0.00,,,0.00,0,Wunderground v.1.15,2013-09-15 04:30:00,
2013-09-15 00:40:00,47.1,44.6,30.15,NNW,346,0.0,0.0,91,0.00,,,0.00,0,Wunderground v.1.15,2013-09-15 04:40:00,
2013-09-15 00:50:00,46.7,44.2,30.15,NNW,346,0.0,0.0,91,0.00,,,0.00,0,Wunderground v.1.15,2013-09-15 04:50:00,
2013-09-15 01:00:00,46.3,44.1,30.15,NNW,346,0.0,0.0,92,0.00,,,0.00,0,Wunderground v.1.15,2013-09-15 05:00:00,
2013-09-15 01:10:00,46.1,43.9,30.15,NNW,346,0.0,0.0,92,0.00,,,0.00,0,Wunderground v.1.15,2013-09-15 05:10:00,
2013-09-15 01:20:00,46.6,44.7,30.16,NNW,346,0.0,0.0,93,0.00,,,0.00,0,Wunderground v.1.15,2013-09-15 05:20:00,
2013-09-15 01:30:00,46.8,44.9,30.16,NNW,346,0.0,0.0,93,0.00,,,0.00,0,Wunderground v.1.15,2013-09-15 05:30:00,
2013-09-15 01:40:00,46.6,44.4,30.16,NNW,346,0.0,0.0,92,0.00,,,0.00,0,Wunderground v.1.15,2013-09-15 05:40:00,
2013-09-15 01:50:00,45.9,43.7,30.16,NNW,346,0.0,0.0,92,0.00,,,0.00,0,Wunderground v.1.15,2013-09-15 05:50:00,
2013-09-15 02:00:00,45.6,43.7,30.15,NNW,346,0.0,0.0,93,0.00,,,0.00,0,Wunderground v.1.15,2013-09-15 06:00:00,
2013-09-15 02:10:00,46.4,44.5,30.15,NNW,346,0.0,0.0,93,0.00,,,0.00,0,Wunderground v.1.15,2013-09-15 06:10:00,
2013-09-15 02:20:00,46.4,44.5,30.15,NNW,346,0.0,0.0,93,0.00,,,0.00,0,Wunderground v.1.15,2013-09-15 06:20:00,
2013-09-15 02:30:00,45.8,43.9,30.16,NNW,346,0.0,0.0,93,0.00,,,0.00,0,Wunderground v.1.15,2013-09-15 06:30:00,
2013-09-15 02:40:00,45.8,43.9,30.15,NNW,346,0.0,0.0,93,0.00,,,0.00,0,Wunderground v.1.15,2013-09-15 06:40:00,
2013-09-15 02:50:00,45.0,43.1,30.16,NNW,346,0.0,0.0,93,0.00,,,0.00,0,Wunderground v.1.15,2013-09-15 06:50:00,
2013-09-15 03:00:00,44.5,42.6,30.16,NNW,346,0.0,0.0,93,0.00,,,0.00,0,Wunderground v.1.15,2013-09-15 07:00:00,
2013-09-15 03:10:00,44.8,43.2,30.16,NNW,346,0.0,0.0,94,0.00,,,0.00,0,Wunderground v.1.15,2013-09-15 07:10:00,
2013-09-15 03:20:00,44.6,43.0,30.16,NNW,346,0.0,0.0,94,0.00,,,0.00,0,Wunderground v.1.15,2013-09-15 07:20:00,
2013-09-15 03:30:00,44.4,42.8,30.16,NNW,346,0.0,0.0,94,0.00,,,0.00,0,Wunderground v.1.15,2013-09-15 07:30:00,
2013-09-15 03:40:00,44.3,42.7,30.16,NNW,346,0.0,0.0,94,0.00,,,0.00,0,Wunderground v.1.15,2013-09-15 07:40:00,
2013-09-15 03:50:00,44.6,43.0,30.17,NNW,346,0.0,0.0,94,0.00,,,0.00,0,Wunderground v.1.15,2013-09-15 07:50:00,
2013-09-15 04:00:00,44.2,42.6,30.16,NNW,346,0.0,0.0,94,0.00,,,0.00,0,Wunderground v.1.15,2013-09-15 08:00:00,
2013-09-15 04:10:00,44.2,42.6,30.16,NNW,346,0.0,0.0,94,0.00,,,0.00,0,Wunderground v.1.15,2013-09-15 08:10:00,
2013-09-15 04:20:00,44.3,43.0,30.16,NNW,346,0.0,0.0,95,0.00,,,0.00,0,Wunderground v.1.15,2013-09-15 08:20:00,
2013-09-15 04:30:00,44.5,43.2,30.17,NNW,346,0.0,0.0,95,0.00,,,0.00,0,Wunderground v.1.15,2013-09-15 08:30:00,
2013-09-15 04:40:00,44.6,43.3,30.16,NNW,346,0.0,0.0,95,0.00,,,0.00,0,Wunderground v.1.15,2013-09-15 08:40:00,
2013-09-15 04:50:00,44.6,43.3,30.17,NNW,346,0.0,0.0,95,0.00,,,0.00,0,Wunderground v.1.15,2013-09-15 08:50:00,
2013-09-15 05:00:00,44.2,42.9,30.16,NNW,346,0.0,0.0,95,0.00,,,0.00,0,Wunderground v.1.15,2013-09-15 09:00:00,
2013-09-15 05:10:00,44.0,42.7,30.16,NNW,346,0.0,0.0,95,0.00,,,0.00,0,Wunderground v.1.15,2013-09-15 09:10:00,
2013-09-15 05:20:00,43.1,41.8,30.17,NNW,346,0.0,0.0,95,0.00,,,0.00,0,Wunderground v.1.15,2013-09-15 09:20:00,
2013-09-15 05:30:00,43.3,42.0,30.17,NNW,346,0.0,0.0,95,0.00,,,0.00,0,Wunderground v.1.15,2013-09-15 09:30:00,
2013-09-15 05:40:00,42.5,41.2,30.17,NNW,346,0.0,0.0,95,0.00,,,0.00,0,Wunderground v.1.15,2013-09-15 09:40:00,
2013-09-15 05:50:00,43.0,41.9,30.18,NNW,346,0.0,0.0,96,0.00,,,0.00,0,Wunderground v.1.15,2013-09-15 09:50:00,
2013-09-15 06:00:00,43.0,41.7,30.18,NNW,346,0.0,0.0,95,0.00,,,0.00,0,Wunderground v.1.15,2013-09-15 10:00:00,
2013-09-15 06:10:00,42.4,41.1,30.18,NNW,346,0.0,0.0,95,0.00,,,0.00,0,Wunderground v.1.15,2013-09-15 10:10:00,
2013-09-15 06:20:00,42.6,41.3,30.18,NNW,346,0.0,0.0,95,0.00,,,0.00,0,Wunderground v.1.15,2013-09-15 10:20:00,
2013-09-15 06:30:00,41.9,40.6,30.18,NNW,346,0.0,0.0,95,0.00,,,0.00,0,Wunderground v.1.15,2013-09-15 10:30:00,
2013-09-15 06:40:00,42.2,41.1,30.18,NNW,346,0.0,0.0,96,0.00,,,0.00,0,Wunderground v.1.15,2013-09-15 10:40:00,
2013-09-15 06:50:00,42.4,42.4,30.18,NNW,346,0.0,0.0,100,0.00,,,0.00,0,Wunderground v.1.15,2013-09-15 10:50:00,
2013-09-15 07:00:00,42.2,40.9,30.18,NNW,346,0.0,0.0,95,0.00,,,0.00,9,Wunderground v.1.15,2013-09-15 11:00:00,
2013-09-15 07:10:00,42.7,41.6,30.19,NNW,346,0.0,0.0,96,0.00,,,0.00,21,Wunderground v.1.15,2013-09-15 11:10:00,
2013-09-15 07:20:00,43.0,41.9,30.19,NNW,346,0.0,0.0,96,0.00,,,0.00,37,Wunderground v.1.15,2013-09-15 11:20:00,
2013-09-15 07:30:00,42.7,41.6,30.20,NNW,346,0.0,0.0,96,0.00,,,0.00,60,Wunderground v.1.15,2013-09-15 11:30:00,
2013-09-15 07:40:00,44.3,43.2,30.20,NNW,346,0.0,0.0,96,0.00,,,0.00,88,Wunderground v.1.15,2013-09-15 11:40:00,
2013-09-15 07:50:00,45.0,43.9,30.20,NNW,346,0.0,0.0,96,0.00,,,0.00,120,Wunderground v.1.15,2013-09-15 11:50:00,
2013-09-15 08:00:00,46.2,45.1,30.21,NNW,346,0.0,0.0,96,0.00,,,0.00,144,Wunderground v.1.15,2013-09-15 12:00:00,
2013-09-15 08:10:00,47.5,46.4,30.21,NNW,346,0.0,0.0,96,0.00,,,0.00,192,Wunderground v.1.15,2013-09-15 12:10:00,
2013-09-15 08:20:00,48.2,47.1,30.21,NNW,346,0.0,0.0,96,0.00,,,0.00,223,Wunderground v.1.15,2013-09-15 12:20:00,
2013-09-15 08:30:00,49.2,48.1,30.21,NNW,346,0.0,0.0,96,0.00,,,0.00,244,Wunderground v.1.15,2013-09-15 12:30:00,
2013-09-15 08:40:00,50.8,49.4,30.21,NNW,346,0.0,0.0,95,0.00,,,0.00,288,Wunderground v.1.15,2013-09-15 12:40:00,
2013-09-15 08:50:00,51.7,49.7,30.21,NNW,346,0.0,0.0,93,0.00,,,0.00,325,Wunderground v.1.15,2013-09-15 12:50:00,
2013-09-15 09:00:00,53.3,50.1,30.21,SE,132,0.0,0.0,89,0.00,,,0.00,371,Wunderground v.1.15,2013-09-15 13:00:00,
2013-09-15 09:10:00,54.6,50.8,30.21,SE,133,0.0,0.0,87,0.00,,,0.00,404,Wunderground v.1.15,2013-09-15 13:10:00,
2013-09-15 09:20:00,55.8,50.7,30.21,SE,134,0.0,3.0,83,0.00,,,0.00,436,Wunderground v.1.15,2013-09-15 13:20:00,
2013-09-15 09:30:00,56.7,51.3,30.21,SSW,213,0.0,0.0,82,0.00,,,0.00,380,Wunderground v.1.15,2013-09-15 13:30:00,
2013-09-15 09:40:00,56.9,51.1,30.21,South,169,0.0,0.0,81,0.00,,,0.00,434,Wunderground v.1.15,2013-09-15 13:40:00,
2013-09-15 09:50:00,57.8,51.0,30.21,WSW,255,0.0,0.0,78,0.00,,,0.00,452,Wunderground v.1.15,2013-09-15 13:50:00,
2013-09-15 10:00:00,59.0,52.1,30.21,SSE,159,0.0,1.0,78,0.00,,,0.00,478,Wunderground v.1.15,2013-09-15 14:00:00,
2013-09-15 10:10:00,60.2,52.2,30.20,SSE,156,2.0,2.0,75,0.00,,,0.00,594,Wunderground v.1.15,2013-09-15 14:10:00,
2013-09-15 10:20:00,61.1,52.4,30.20,WSW,240,0.0,0.0,73,0.00,,,0.00,629,Wunderground v.1.15,2013-09-15 14:20:00,
2013-09-15 10:30:00,62.2,52.7,30.20,WSW,250,0.0,0.0,71,0.00,,,0.00,617,Wunderground v.1.15,2013-09-15 14:30:00,
2013-09-15 10:40:00,63.3,53.3,30.20,WSW,249,1.0,1.0,70,0.00,,,0.00,619,Wunderground v.1.15,2013-09-15 14:40:00,
2013-09-15 10:50:00,65.0,54.2,30.20,SW,232,1.0,1.0,68,0.00,,,0.00,638,Wunderground v.1.15,2013-09-15 14:50:00,
2013-09-15 11:00:00,65.4,54.2,30.19,West,267,1.0,1.0,67,0.00,,,0.00,582,Wunderground v.1.15,2013-09-15 15:00:00,
2013-09-15 11:10:00,65.9,53.8,30.19,South,188,1.0,1.0,65,0.00,,,0.00,650,Wunderground v.1.15,2013-09-15 15:10:00,
2013-09-15 11:20:00,66.6,53.6,30.19,West,259,2.0,2.0,63,0.00,,,0.00,677,Wunderground v.1.15,2013-09-15 15:20:00,
2013-09-15 11:30:00,67.0,53.5,30.19,South,184,1.0,1.0,62,0.00,,,0.00,647,Wunderground v.1.15,2013-09-15 15:30:00,
2013-09-15 11:40:00,68.7,53.3,30.18,WNW,285,2.0,2.0,58,0.00,,,0.00,735,Wunderground v.1.15,2013-09-15 15:40:00,
2013-09-15 11:50:00,69.7,53.3,30.18,West,261,3.0,4.0,56,0.00,,,0.00,729,Wunderground v.1.15,2013-09-15 15:50:00,
2013-09-15 12:00:00,70.1,52.7,30.18,West,266,2.0,4.0,54,0.00,,,0.00,775,Wunderground v.1.15,2013-09-15 16:00:00,
2013-09-15 12:10:00,70.3,52.9,30.17,WSW,252,3.0,4.0,54,0.00,,,0.00,788,Wunderground v.1.15,2013-09-15 16:10:00,
2013-09-15 12:20:00,69.9,53.0,30.17,SE,142,2.0,5.0,55,0.00,,,0.00,564,Wunderground v.1.15,2013-09-15 16:20:00,
2013-09-15 12:30:00,70.7,53.7,30.17,SE,146,2.0,2.0,55,0.00,,,0.00,772,Wunderground v.1.15,2013-09-15 16:30:00,
2013-09-15 12:40:00,71.6,53.6,30.16,SSE,158,4.0,4.0,53,0.00,,,0.00,686,Wunderground v.1.15,2013-09-15 16:40:00,
2013-09-15 12:50:00,71.7,54.7,30.15,WSW,238,1.0,3.0,55,0.00,,,0.00,322,Wunderground v.1.15,2013-09-15 16:50:00,
2013-09-15 13:00:00,72.7,54.6,30.15,SSE,164,3.0,3.0,53,0.00,,,0.00,227,Wunderground v.1.15,2013-09-15 17:00:00,
2013-09-15 13:10:00,72.7,55.1,30.15,West,265,3.0,6.0,54,0.00,,,0.00,258,Wunderground v.1.15,2013-09-15 17:10:00,
2013-09-15 13:20:00,73.0,55.4,30.14,SSE,153,3.0,6.0,54,0.00,,,0.00,271,Wunderground v.1.15,2013-09-15 17:20:00,
2013-09-15 13:30:00,72.9,54.8,30.14,South,179,2.0,2.0,53,0.00,,,0.00,227,Wunderground v.1.15,2013-09-15 17:30:00,
2013-09-15 13:40:00,74.1,55.3,30.13,South,188,2.0,2.0,52,0.00,,,0.00,325,Wunderground v.1.15,2013-09-15 17:40:00,
2013-09-15 13:50:00,73.5,54.3,30.13,SSW,196,2.0,3.0,51,0.00,,,0.00,399,Wunderground v.1.15,2013-09-15 17:50:00,
2013-09-15 14:00:00,73.5,54.3,30.12,SSE,150,2.0,4.0,51,0.00,,,0.00,343,Wunderground v.1.15,2013-09-15 18:00:00,
2013-09-15 14:10:00,74.4,55.6,30.12,WSW,257,1.0,3.0,52,0.00,,,0.00,369,Wunderground v.1.15,2013-09-15 18:10:00,
2013-09-15 14:20:00,73.9,55.2,30.12,South,171,2.0,2.0,52,0.00,,,0.00,568,Wunderground v.1.15,2013-09-15 18:20:00,
2013-09-15 14:30:00,74.5,56.2,30.11,SE,144,2.0,2.0,53,0.00,,,0.00,812,Wunderground v.1.15,2013-09-15 18:30:00,
2013-09-15 14:40:00,75.4,55.5,30.11,SE,136,2.0,5.0,50,0.00,,,0.00,756,Wunderground v.1.15,2013-09-15 18:40:00,
2013-09-15 14:50:00,76.1,56.7,30.10,SW,233,3.0,3.0,51,0.00,,,0.00,559,Wunderground v.1.15,2013-09-15 18:50:00,
2013-09-15 15:00:00,75.6,53.9,30.10,West,261,1.0,1.0,47,0.00,,,0.00,591,Wunderground v.1.15,2013-09-15 19:00:00,
2013-09-15 15:10:00,75.8,55.8,30.09,WSW,246,1.0,1.0,50,0.00,,,0.00,568,Wunderground v.1.15,2013-09-15 19:10:00,
2013-09-15 15:20:00,75.7,55.2,30.09,WSW,238,1.0,1.0,49,0.00,,,0.00,684,Wunderground v.1.15,2013-09-15 19:20:00,
2013-09-15 15:30:00,76.5,55.9,30.08,SSE,150,1.0,1.0,49,0.00,,,0.00,513,Wunderground v.1.15,2013-09-15 19:30:00,
2013-09-15 15:40:00,75.3,55.9,30.08,SE,142,2.0,2.0,51,0.00,,,0.00,446,Wunderground v.1.15,2013-09-15 19:40:00,
2013-09-15 15:50:00,75.6,55.6,30.08,SSE,159,2.0,2.0,50,0.00,,,0.00,318,Wunderground v.1.15,2013-09-15 19:50:00,
2013-09-15 16:00:00,76.3,56.3,30.08,ESE,117,1.0,4.0,50,0.00,,,0.00,538,Wunderground v.1.15,2013-09-15 20:00:00,
2013-09-15 16:10:00,76.8,57.3,30.07,ESE,112,2.0,4.0,51,0.00,,,0.00,545,Wunderground v.1.15,2013-09-15 20:10:00,
2013-09-15 16:20:00,76.9,56.3,30.07,SSE,153,3.0,3.0,49,0.00,,,0.00,373,Wunderground v.1.15,2013-09-15 20:20:00,
2013-09-15 16:30:00,76.0,56.6,30.07,SSE,161,3.0,3.0,51,0.00,,,0.00,436,Wunderground v.1.15,2013-09-15 20:30:00,
2013-09-15 16:40:00,76.4,57.5,30.07,SSE,168,2.0,2.0,52,0.00,,,0.00,322,Wunderground v.1.15,2013-09-15 20:40:00,
2013-09-15 16:50:00,75.1,55.7,30.07,SSE,165,3.0,3.0,51,0.00,,,0.00,113,Wunderground v.1.15,2013-09-15 20:50:00,
2013-09-15 17:00:00,74.8,57.0,30.06,SE,145,1.0,7.0,54,0.00,,,0.00,239,Wunderground v.1.15,2013-09-15 21:00:00,
2013-09-15 17:10:00,75.0,57.7,30.06,SSE,162,4.0,4.0,55,0.00,,,0.00,323,Wunderground v.1.15,2013-09-15 21:10:00,
2013-09-15 17:20:00,74.9,57.1,30.06,SSE,155,1.0,5.0,54,0.00,,,0.00,176,Wunderground v.1.15,2013-09-15 21:20:00,
2013-09-15 17:30:00,74.4,57.7,30.06,SE,131,2.0,4.0,56,0.00,,,0.00,128,Wunderground v.1.15,2013-09-15 21:30:00,
2013-09-15 17:40:00,74.0,57.3,30.06,SE,144,4.0,4.0,56,0.00,,,0.00,204,Wunderground v.1.15,2013-09-15 21:40:00,
2013-09-15 17:50:00,73.7,57.5,30.05,SSE,153,4.0,4.0,57,0.00,,,0.00,102,Wunderground v.1.15,2013-09-15 21:50:00,
2013-09-15 18:00:00,73.1,57.9,30.05,SE,143,2.0,6.0,59,0.00,,,0.00,84,Wunderground v.1.15,2013-09-15 22:00:00,
2013-09-15 18:10:00,72.6,57.4,30.06,SSE,147,3.0,3.0,59,0.00,,,0.00,72,Wunderground v.1.15,2013-09-15 22:10:00,
2013-09-15 18:20:00,72.3,57.6,30.06,SSE,148,1.0,1.0,60,0.00,,,0.00,70,Wunderground v.1.15,2013-09-15 22:20:00,
2013-09-15 18:30:00,72.0,58.3,30.05,SSE,148,2.0,2.0,62,0.00,,,0.00,58,Wunderground v.1.15,2013-09-15 22:30:00,
2013-09-15 18:40:00,71.6,57.9,30.05,SSE,147,2.0,3.0,62,0.00,,,0.00,42,Wunderground v.1.15,2013-09-15 22:40:00,
2013-09-15 18:50:00,71.3,58.1,30.05,SSE,148,2.0,2.0,63,0.00,,,0.00,32,Wunderground v.1.15,2013-09-15 22:50:00,
2013-09-15 19:00:00,70.8,58.4,30.05,SSE,149,2.0,2.0,65,0.00,,,0.00,16,Wunderground v.1.15,2013-09-15 23:00:00,
2013-09-15 19:10:00,70.5,58.2,30.05,SSE,157,2.0,2.0,65,0.00,,,0.00,5,Wunderground v.1.15,2013-09-15 23:10:00,
2013-09-15 19:20:00,69.9,58.0,30.04,SSE,160,1.0,1.0,66,0.00,,,0.00,0,Wunderground v.1.15,2013-09-15 23:20:00,
2013-09-15 19:30:00,69.7,57.8,30.04,SSE,163,1.0,1.0,66,0.00,,,0.00,0,Wunderground v.1.15,2013-09-15 23:30:00,
2013-09-15 19:40:00,69.3,57.9,30.05,SSE,163,0.0,0.0,67,0.00,,,0.00,0,Wunderground v.1.15,2013-09-15 23:40:00,
2013-09-15 19:50:00,68.9,57.9,30.05,SSE,163,0.0,0.0,68,0.00,,,0.00,0,Wunderground v.1.15,2013-09-15 23:50:00,
2013-09-15 20:00:00,68.4,57.8,30.05,SSE,163,0.0,0.0,69,0.00,,,0.00,0,Wunderground v.1.15,2013-09-16 00:00:00,
2013-09-15 20:10:00,68.0,57.8,30.05,SSE,163,0.0,0.0,70,0.00,,,0.00,0,Wunderground v.1.15,2013-09-16 00:10:00,
2013-09-15 20:20:00,67.6,57.9,30.05,SSE,163,0.0,0.0,71,0.00,,,0.00,0,Wunderground v.1.15,2013-09-16 00:20:00,
2013-09-15 20:30:00,67.4,58.1,30.05,SSE,163,0.0,0.0,72,0.00,,,0.00,0,Wunderground v.1.15,2013-09-16 00:30:00,
2013-09-15 20:40:00,67.1,57.8,30.05,SSE,163,0.0,0.0,72,0.00,,,0.00,0,Wunderground v.1.15,2013-09-16 00:40:00,
2013-09-15 20:50:00,66.4,57.9,30.06,SSE,163,0.0,0.0,74,0.00,,,0.00,0,Wunderground v.1.15,2013-09-16 00:50:00,
2013-09-15 21:00:00,65.2,57.4,30.06,SSE,163,0.0,0.0,76,0.00,,,0.00,0,Wunderground v.1.15,2013-09-16 01:00:00,
2013-09-15 21:10:00,63.8,57.5,30.06,SSE,163,0.0,0.0,80,0.00,,,0.00,0,Wunderground v.1.15,2013-09-16 01:10:00,
2013-09-15 21:20:00,63.3,57.4,30.06,SSE,163,0.0,0.0,81,0.00,,,0.00,0,Wunderground v.1.15,2013-09-16 01:20:00,
2013-09-15 21:30:00,62.9,57.7,30.06,SSE,163,0.0,0.0,83,0.00,,,0.00,0,Wunderground v.1.15,2013-09-16 01:30:00,
2013-09-15 21:40:00,62.9,58.0,30.06,SSE,163,0.0,0.0,84,0.00,,,0.00,0,Wunderground v.1.15,2013-09-16 01:40:00,
2013-09-15 21:50:00,62.8,58.2,30.06,SSE,163,0.0,0.0,85,0.00,,,0.00,0,Wunderground v.1.15,2013-09-16 01:50:00,
2013-09-15 22:00:00,62.4,58.2,30.06,SSE,163,0.0,0.0,86,0.00,,,0.00,0,Wunderground v.1.15,2013-09-16 02:00:00,
2013-09-15 22:10:00,62.1,58.5,30.06,SSE,163,0.0,0.0,88,0.00,,,0.00,0,Wunderground v.1.15,2013-09-16 02:10:00,
2013-09-15 22:20:00,62.0,58.4,30.06,SSE,163,0.0,0.0,88,0.00,,,0.00,0,Wunderground v.1.15,2013-09-16 02:20:00,
2013-09-15 22:30:00,61.8,58.8,30.06,SSE,163,0.0,0.0,90,0.00,,,0.00,0,Wunderground v.1.15,2013-09-16 02:30:00,
2013-09-15 22:40:00,61.5,58.5,30.06,SSE,163,0.0,0.0,90,0.00,,,0.00,0,Wunderground v.1.15,2013-09-16 02:40:00,
2013-09-15 22:50:00,61.3,58.3,30.06,SSE,163,0.0,0.0,90,0.00,,,0.00,0,Wunderground v.1.15,2013-09-16 02:50:00,
2013-09-15 23:00:00,62.0,58.7,30.06,SSE,163,0.0,0.0,89,0.00,,,0.00,0,Wunderground v.1.15,2013-09-16 03:00:00,
2013-09-15 23:10:00,62.3,58.4,30.05,SSE,163,0.0,0.0,87,0.00,,,0.00,0,Wunderground v.1.15,2013-09-16 03:10:00,
2013-09-15 23:20:00,63.0,58.4,30.06,SSE,163,0.0,0.0,85,0.00,,,0.00,0,Wunderground v.1.15,2013-09-16 03:20:00,
2013-09-15 23:30:00,63.1,58.5,30.06,SSE,163,0.0,0.0,85,0.00,,,0.00,0,Wunderground v.1.15,2013-09-16 03:30:00,
2013-09-15 23:40:00,62.5,57.9,30.06,SSE,163,0.0,0.0,85,0.00,,,0.00,0,Wunderground v.1.15,2013-09-16 03:40:00,
2013-09-15 23:50:00,62.6,58.0,30.05,SSE,163,0.0,0.0,85,0.00,,,0.00,0,Wunderground v.1.15,2013-09-16 03:50:00,